Year,Month,Day,Hour,Minute,Value (Times are PST for temperature in C)
2013,09,10,00,00,15.00
2013,09,10,00,01,15.00
2013,09,10,00,02,14.90
2013,09,10,00,03,14.90
2013,09,10,00,04,14.90
2013,09,10,00,05,14.90
2013,09,10,00,06,14.90
2013,09,10,00,07,14.90
2013,09,10,00,08,14.80
2013,09,10,00,09,14.80
2013,09,10,00,10,14.80
2013,09,10,00,11,14.80
2013,09,10,00,12,14.80
2013,09,10,00,16,14.80
2013,09,10,00,17,14.80
2013,09,10,00,18,14.80
2013,09,10,00,19,14.80
2013,09,10,00,20,14.80
2013,09,10,00,21,14.80
2013,09,10,00,22,14.80
2013,09,10,00,23,14.80
2013,09,10,00,24,14.80
2013,09,10,00,25,14.80
2013,09,10,00,26,14.80
2013,09,10,00,27,14.70
2013,09,10,00,28,14.70
2013,09,10,00,29,14.70
2013,09,10,00,30,14.70
2013,09,10,00,31,14.70
2013,09,10,00,32,14.70
2013,09,10,00,33,14.70
2013,09,10,00,34,14.70
2013,09,10,00,35,14.60
2013,09,10,00,36,14.60
2013,09,10,00,37,14.60
2013,09,10,00,38,14.60
2013,09,10,00,39,14.60
2013,09,10,00,40,14.50
2013,09,10,00,41,14.50
2013,09,10,00,42,14.50
2013,09,10,00,43,14.50
2013,09,10,00,44,14.60
2013,09,10,00,45,14.60
2013,09,10,00,46,14.60
2013,09,10,00,47,14.60
2013,09,10,00,48,14.60
2013,09,10,00,49,14.60
2013,09,10,00,50,14.60
2013,09,10,00,51,14.60
2013,09,10,00,52,14.50
2013,09,10,00,53,14.50
2013,09,10,00,54,14.50
2013,09,10,00,55,14.50
2013,09,10,00,56,14.40
2013,09,10,00,57,14.40
2013,09,10,00,58,14.40
2013,09,10,00,59,14.30
2013,09,10,01,00,14.30
2013,09,10,01,01,14.30
2013,09,10,01,02,14.30
2013,09,10,01,03,14.30
2013,09,10,01,04,14.30
2013,09,10,01,05,14.20
2013,09,10,01,06,14.20
2013,09,10,01,07,14.20
2013,09,10,01,08,14.20
2013,09,10,01,09,14.20
2013,09,10,01,10,14.20
2013,09,10,01,11,14.10
2013,09,10,01,12,14.10
2013,09,10,01,13,14.10
2013,09,10,01,14,14.10
2013,09,10,01,15,14.00
2013,09,10,01,16,14.00
2013,09,10,01,17,14.10
2013,09,10,01,18,14.10
2013,09,10,01,19,14.10
2013,09,10,01,20,14.10
2013,09,10,01,21,14.10
2013,09,10,01,22,14.10
2013,09,10,01,23,14.10
2013,09,10,01,24,14.10
2013,09,10,01,25,14.10
2013,09,10,01,26,14.10
2013,09,10,01,27,14.10
2013,09,10,01,28,14.10
2013,09,10,01,29,14.00
2013,09,10,01,30,14.00
2013,09,10,01,31,14.00
2013,09,10,01,32,14.00
2013,09,10,01,33,13.90
2013,09,10,01,34,13.90
2013,09,10,01,35,13.90
2013,09,10,01,36,13.90
2013,09,10,01,37,13.90
2013,09,10,01,38,13.90
2013,09,10,01,39,13.90
2013,09,10,01,40,13.90
2013,09,10,01,41,13.90
2013,09,10,01,42,13.90
2013,09,10,01,43,13.90
2013,09,10,01,44,13.90
2013,09,10,01,45,13.80
2013,09,10,01,46,13.80
2013,09,10,01,47,13.80
2013,09,10,01,48,13.80
2013,09,10,01,49,13.80
2013,09,10,01,50,13.80
2013,09,10,01,51,13.80
2013,09,10,01,52,13.80
2013,09,10,01,53,13.80
2013,09,10,01,54,13.80
2013,09,10,01,55,13.80
2013,09,10,01,56,13.80
2013,09,10,01,57,13.80
2013,09,10,01,58,13.80
2013,09,10,01,59,13.80
2013,09,10,02,00,13.80
2013,09,10,02,01,13.70
2013,09,10,02,02,13.70
2013,09,10,02,03,13.70
2013,09,10,02,04,13.70
2013,09,10,02,05,13.70
2013,09,10,02,06,13.70
2013,09,10,02,07,13.70
2013,09,10,02,08,13.70
2013,09,10,02,09,13.70
2013,09,10,02,10,13.70
2013,09,10,02,11,13.70
2013,09,10,02,12,13.70
2013,09,10,02,13,13.60
2013,09,10,02,14,13.60
2013,09,10,02,15,13.60
2013,09,10,02,16,13.60
2013,09,10,02,17,13.60
2013,09,10,02,18,13.60
2013,09,10,02,19,13.50
2013,09,10,02,20,13.50
2013,09,10,02,21,13.50
2013,09,10,02,22,13.50
2013,09,10,02,23,13.50
2013,09,10,02,24,13.50
2013,09,10,02,25,13.40
2013,09,10,02,26,13.40
2013,09,10,02,27,13.40
2013,09,10,02,28,13.40
2013,09,10,02,29,13.40
2013,09,10,02,30,13.40
2013,09,10,02,31,13.30
2013,09,10,02,32,13.30
2013,09,10,02,33,13.30
2013,09,10,02,34,13.30
2013,09,10,02,35,13.30
2013,09,10,02,36,13.30
2013,09,10,02,37,13.20
2013,09,10,02,38,13.20
2013,09,10,02,39,13.20
2013,09,10,02,40,13.20
2013,09,10,02,41,13.20
2013,09,10,02,42,13.20
2013,09,10,02,43,13.20
2013,09,10,02,44,13.20
2013,09,10,02,45,13.20
2013,09,10,02,46,13.10
2013,09,10,02,47,13.20
2013,09,10,02,48,13.20
2013,09,10,02,49,13.20
2013,09,10,02,50,13.20
2013,09,10,02,51,13.20
2013,09,10,02,52,13.10
2013,09,10,02,53,13.10
2013,09,10,02,54,13.10
2013,09,10,02,55,13.10
2013,09,10,02,56,13.10
2013,09,10,02,57,13.00
2013,09,10,02,58,13.00
2013,09,10,02,59,13.00
2013,09,10,03,00,13.00
2013,09,10,03,01,13.00
2013,09,10,03,02,13.00
2013,09,10,03,03,13.00
2013,09,10,03,04,13.00
2013,09,10,03,05,12.90
2013,09,10,03,06,12.90
2013,09,10,03,07,12.90
2013,09,10,03,08,12.90
2013,09,10,03,09,12.90
2013,09,10,03,10,12.80
2013,09,10,03,11,12.80
2013,09,10,03,12,12.80
2013,09,10,03,13,12.80
2013,09,10,03,14,12.80
2013,09,10,03,15,12.70
2013,09,10,03,16,12.70
2013,09,10,03,17,12.70
2013,09,10,03,18,12.70
2013,09,10,03,19,12.60
2013,09,10,03,20,12.60
2013,09,10,03,21,12.60
2013,09,10,03,22,12.60
2013,09,10,03,23,12.60
2013,09,10,03,24,12.60
2013,09,10,03,25,12.60
2013,09,10,03,26,12.60
2013,09,10,03,27,12.50
2013,09,10,03,28,12.50
2013,09,10,03,29,12.50
2013,09,10,03,30,12.50
2013,09,10,03,31,12.50
2013,09,10,03,32,12.50
2013,09,10,03,33,12.50
2013,09,10,03,34,12.40
2013,09,10,03,35,12.40
2013,09,10,03,36,12.40
2013,09,10,03,37,12.40
2013,09,10,03,38,12.40
2013,09,10,03,39,12.40
2013,09,10,03,40,12.40
2013,09,10,03,41,12.40
2013,09,10,03,42,12.40
2013,09,10,03,43,12.40
2013,09,10,03,44,12.40
2013,09,10,03,45,12.30
2013,09,10,03,46,12.30
2013,09,10,03,47,12.30
2013,09,10,03,48,12.30
2013,09,10,03,49,12.30
2013,09,10,03,50,12.30
2013,09,10,03,51,12.30
2013,09,10,03,52,12.30
2013,09,10,03,53,12.30
2013,09,10,03,54,12.30
2013,09,10,03,55,12.30
2013,09,10,03,56,12.30
2013,09,10,03,57,12.30
2013,09,10,03,58,12.30
2013,09,10,03,59,12.30
2013,09,10,04,00,12.30
2013,09,10,04,01,12.30
2013,09,10,04,02,12.30
2013,09,10,04,03,12.30
2013,09,10,04,04,12.30
2013,09,10,04,05,12.30
2013,09,10,04,06,12.20
2013,09,10,04,07,12.20
2013,09,10,04,08,12.20
2013,09,10,04,09,12.20
2013,09,10,04,10,12.20
2013,09,10,04,11,12.20
2013,09,10,04,12,12.20
2013,09,10,04,13,12.20
2013,09,10,04,14,12.20
2013,09,10,04,15,12.20
2013,09,10,04,16,12.20
2013,09,10,04,17,12.10
2013,09,10,04,18,12.10
2013,09,10,04,19,12.10
2013,09,10,04,20,12.10
2013,09,10,04,21,12.10
2013,09,10,04,22,12.10
2013,09,10,04,23,12.10
2013,09,10,04,24,12.10
2013,09,10,04,25,12.10
2013,09,10,04,26,12.10
2013,09,10,04,27,12.10
2013,09,10,04,28,12.00
2013,09,10,04,29,12.00
2013,09,10,04,30,12.00
2013,09,10,04,31,12.00
2013,09,10,04,32,12.00
2013,09,10,04,33,12.00
2013,09,10,04,34,12.00
2013,09,10,04,35,11.90
2013,09,10,04,36,11.90
2013,09,10,04,37,11.90
2013,09,10,04,38,11.90
2013,09,10,04,39,11.90
2013,09,10,04,40,11.80
2013,09,10,04,41,11.80
2013,09,10,04,42,11.80
2013,09,10,04,43,11.80
2013,09,10,04,44,11.80
2013,09,10,04,45,11.80
2013,09,10,04,46,11.80
2013,09,10,04,47,11.80
2013,09,10,04,48,11.80
2013,09,10,04,49,11.80
2013,09,10,04,50,11.80
2013,09,10,04,51,11.80
2013,09,10,04,52,11.80
2013,09,10,04,53,11.80
2013,09,10,04,54,11.80
2013,09,10,04,55,11.80
2013,09,10,04,56,11.80
2013,09,10,04,57,11.80
2013,09,10,04,58,11.80
2013,09,10,04,59,11.80
2013,09,10,05,00,11.80
2013,09,10,05,01,11.80
2013,09,10,05,02,11.80
2013,09,10,05,03,11.80
2013,09,10,05,04,11.80
2013,09,10,05,05,11.80
2013,09,10,05,06,11.80
2013,09,10,05,07,11.70
2013,09,10,05,08,11.70
2013,09,10,05,09,11.70
2013,09,10,05,10,11.70
2013,09,10,05,11,11.70
2013,09,10,05,12,11.70
2013,09,10,05,13,11.70
2013,09,10,05,14,11.70
2013,09,10,05,15,11.70
2013,09,10,05,16,11.70
2013,09,10,05,17,11.70
2013,09,10,05,18,11.80
2013,09,10,05,19,11.80
2013,09,10,05,20,11.80
2013,09,10,05,21,11.80
2013,09,10,05,22,11.80
2013,09,10,05,23,11.80
2013,09,10,05,24,11.80
2013,09,10,05,25,11.80
2013,09,10,05,26,11.80
2013,09,10,05,27,11.80
2013,09,10,05,28,11.80
2013,09,10,05,29,11.70
2013,09,10,05,30,11.70
2013,09,10,05,31,11.70
2013,09,10,05,32,11.70
2013,09,10,05,33,11.70
2013,09,10,05,34,11.70
2013,09,10,05,35,11.70
2013,09,10,05,36,11.70
2013,09,10,05,37,11.70
2013,09,10,05,38,11.70
2013,09,10,05,39,11.70
2013,09,10,05,40,11.60
2013,09,10,05,41,11.60
2013,09,10,05,42,11.60
2013,09,10,05,43,11.60
2013,09,10,05,44,11.60
2013,09,10,05,45,11.60
2013,09,10,05,46,11.60
2013,09,10,05,47,11.60
2013,09,10,05,48,11.60
2013,09,10,05,49,11.60
2013,09,10,05,50,11.60
2013,09,10,05,51,11.60
2013,09,10,05,52,11.60
2013,09,10,05,53,11.60
2013,09,10,05,54,11.60
2013,09,10,05,55,11.60
2013,09,10,05,56,11.60
2013,09,10,05,57,11.60
2013,09,10,05,58,11.60
2013,09,10,05,59,11.60
2013,09,10,06,00,11.60
2013,09,10,06,01,11.60
2013,09,10,06,02,11.60
2013,09,10,06,03,11.60
2013,09,10,06,04,11.60
2013,09,10,06,05,11.60
2013,09,10,06,06,11.60
2013,09,10,06,07,11.60
2013,09,10,06,08,11.60
2013,09,10,06,09,11.60
2013,09,10,06,10,11.60
2013,09,10,06,11,11.60
2013,09,10,06,12,11.60
2013,09,10,06,13,11.60
2013,09,10,06,14,11.60
2013,09,10,06,15,11.60
2013,09,10,06,16,11.60
2013,09,10,06,17,11.60
2013,09,10,06,18,11.60
2013,09,10,06,19,11.60
2013,09,10,06,20,11.60
2013,09,10,06,21,11.60
2013,09,10,06,22,11.60
2013,09,10,06,23,11.60
2013,09,10,06,24,11.50
2013,09,10,06,25,11.40
2013,09,10,06,26,11.40
2013,09,10,06,27,11.40
2013,09,10,06,28,11.40
2013,09,10,06,29,11.40
2013,09,10,06,30,11.40
2013,09,10,06,31,11.40
2013,09,10,06,32,11.40
2013,09,10,06,33,11.40
2013,09,10,06,34,11.40
2013,09,10,06,35,11.30
2013,09,10,06,36,11.30
2013,09,10,06,37,11.30
2013,09,10,06,38,11.30
2013,09,10,06,39,11.40
2013,09,10,06,40,11.40
2013,09,10,06,41,11.40
2013,09,10,06,42,11.40
2013,09,10,06,43,11.30
2013,09,10,06,44,11.30
2013,09,10,06,45,11.30
2013,09,10,06,46,11.30
2013,09,10,06,47,11.30
2013,09,10,06,48,11.30
2013,09,10,06,49,11.20
2013,09,10,06,50,11.20
2013,09,10,06,51,11.20
2013,09,10,06,52,11.30
2013,09,10,06,53,11.30
2013,09,10,06,54,11.30
2013,09,10,06,55,11.30
2013,09,10,06,56,11.30
2013,09,10,06,57,11.30
2013,09,10,06,58,11.30
2013,09,10,06,59,11.30
2013,09,10,07,00,11.30
2013,09,10,07,01,11.30
2013,09,10,07,02,11.30
2013,09,10,07,03,11.30
2013,09,10,07,04,11.30
2013,09,10,07,05,11.20
2013,09,10,07,06,11.20
2013,09,10,07,07,11.20
2013,09,10,07,08,11.20
2013,09,10,07,09,11.20
2013,09,10,07,10,11.20
2013,09,10,07,11,11.30
2013,09,10,07,12,11.30
2013,09,10,07,13,11.30
2013,09,10,07,14,11.30
2013,09,10,07,15,11.30
2013,09,10,07,16,11.30
2013,09,10,07,17,11.40
2013,09,10,07,18,11.40
2013,09,10,07,19,11.40
2013,09,10,07,20,11.40
2013,09,10,07,21,11.40
2013,09,10,07,22,11.40
2013,09,10,07,23,11.40
2013,09,10,07,24,11.40
2013,09,10,07,25,11.40
2013,09,10,07,26,11.40
2013,09,10,07,27,11.40
2013,09,10,07,28,11.40
2013,09,10,07,29,11.40
2013,09,10,07,30,11.40
2013,09,10,07,31,11.40
2013,09,10,07,32,11.40
2013,09,10,07,33,11.40
2013,09,10,07,34,11.50
2013,09,10,07,35,11.60
2013,09,10,07,36,11.60
2013,09,10,07,37,11.60
2013,09,10,07,38,11.60
2013,09,10,07,39,11.70
2013,09,10,07,40,11.70
2013,09,10,07,41,11.80
2013,09,10,07,42,11.80
2013,09,10,07,43,11.90
2013,09,10,07,44,12.00
2013,09,10,07,45,12.10
2013,09,10,07,46,12.30
2013,09,10,07,47,12.30
2013,09,10,07,48,12.40
2013,09,10,07,49,12.50
2013,09,10,07,50,12.50
2013,09,10,07,51,12.60
2013,09,10,07,52,12.70
2013,09,10,07,53,12.70
2013,09,10,07,54,12.80
2013,09,10,07,55,12.90
2013,09,10,07,56,12.90
2013,09,10,07,57,13.00
2013,09,10,07,58,13.10
2013,09,10,07,59,13.20
2013,09,10,08,00,13.20
2013,09,10,08,01,13.30
2013,09,10,08,02,13.50
2013,09,10,08,03,13.60
2013,09,10,08,04,13.60
2013,09,10,08,05,13.70
2013,09,10,08,06,13.70
2013,09,10,08,07,13.70
2013,09,10,08,08,13.70
2013,09,10,08,09,13.70
2013,09,10,08,10,13.70
2013,09,10,08,11,13.80
2013,09,10,08,12,13.80
2013,09,10,08,13,13.90
2013,09,10,08,14,14.00
2013,09,10,08,15,14.10
2013,09,10,08,16,14.20
2013,09,10,08,17,14.20
2013,09,10,08,18,14.20
2013,09,10,08,19,14.30
2013,09,10,08,20,14.40
2013,09,10,08,21,14.50
2013,09,10,08,22,14.50
2013,09,10,08,23,14.50
2013,09,10,08,24,14.60
2013,09,10,08,25,14.60
2013,09,10,08,26,14.70
2013,09,10,08,27,14.70
2013,09,10,08,28,14.70
2013,09,10,08,29,14.70
2013,09,10,08,30,14.80
2013,09,10,08,31,14.90
2013,09,10,08,32,15.00
2013,09,10,08,33,15.10
2013,09,10,08,34,15.20
2013,09,10,08,35,15.30
2013,09,10,08,36,15.30
2013,09,10,08,37,15.30
2013,09,10,08,38,15.40
2013,09,10,08,39,15.50
2013,09,10,08,40,15.60
2013,09,10,08,41,15.60
2013,09,10,08,42,15.70
2013,09,10,08,43,15.80
2013,09,10,08,44,15.90
2013,09,10,08,45,16.00
2013,09,10,08,46,16.10
2013,09,10,08,47,16.10
2013,09,10,08,48,16.20
2013,09,10,08,49,16.30
2013,09,10,08,50,16.40
2013,09,10,08,51,16.40
2013,09,10,08,52,16.60
2013,09,10,08,53,16.70
2013,09,10,08,54,16.70
2013,09,10,08,55,16.80
2013,09,10,08,56,17.00
2013,09,10,08,57,17.00
2013,09,10,08,58,17.20
2013,09,10,08,59,17.30
2013,09,10,09,00,17.30
2013,09,10,09,01,17.30
2013,09,10,09,02,17.30
2013,09,10,09,03,17.40
2013,09,10,09,04,17.40
2013,09,10,09,05,17.50
2013,09,10,09,06,17.60
2013,09,10,09,07,17.60
2013,09,10,09,08,17.70
2013,09,10,09,09,17.80
2013,09,10,09,10,17.80
2013,09,10,09,11,17.80
2013,09,10,09,12,17.90
2013,09,10,09,13,17.90
2013,09,10,09,14,17.90
2013,09,10,09,15,17.90
2013,09,10,09,16,17.90
2013,09,10,09,17,17.90
2013,09,10,09,18,18.00
2013,09,10,09,19,18.10
2013,09,10,09,20,18.20
2013,09,10,09,21,18.20
2013,09,10,09,22,18.30
2013,09,10,09,23,18.40
2013,09,10,09,24,18.50
2013,09,10,09,25,18.50
2013,09,10,09,26,18.60
2013,09,10,09,27,18.70
2013,09,10,09,28,18.90
2013,09,10,09,29,18.90
2013,09,10,09,30,19.00
2013,09,10,09,31,19.10
2013,09,10,09,32,19.10
2013,09,10,09,33,19.10
2013,09,10,09,34,19.20
2013,09,10,09,35,19.30
2013,09,10,09,36,19.30
2013,09,10,09,37,19.30
2013,09,10,09,38,19.30
2013,09,10,09,39,19.20
2013,09,10,09,40,19.20
2013,09,10,09,41,19.20
2013,09,10,09,42,19.30
2013,09,10,09,43,19.30
2013,09,10,09,44,19.30
2013,09,10,09,45,19.40
2013,09,10,09,46,19.40
2013,09,10,09,47,19.40
2013,09,10,09,48,19.50
2013,09,10,09,49,19.60
2013,09,10,09,50,19.60
2013,09,10,09,51,19.70
2013,09,10,09,52,19.70
2013,09,10,09,53,19.80
2013,09,10,09,54,19.90
2013,09,10,09,55,20.00
2013,09,10,09,56,20.20
2013,09,10,09,57,20.20
2013,09,10,09,58,20.20
2013,09,10,09,59,20.30
2013,09,10,10,00,20.30
2013,09,10,10,01,20.40
2013,09,10,10,02,20.40
2013,09,10,10,03,20.40
2013,09,10,10,04,20.50
2013,09,10,10,05,20.60
2013,09,10,10,06,20.60
2013,09,10,10,07,20.70
2013,09,10,10,08,20.70
2013,09,10,10,09,20.80
2013,09,10,10,10,20.90
2013,09,10,10,11,21.00
2013,09,10,10,12,21.00
2013,09,10,10,13,21.10
2013,09,10,10,14,21.10
2013,09,10,10,15,21.10
2013,09,10,10,16,21.20
2013,09,10,10,17,21.30
2013,09,10,10,18,21.30
2013,09,10,10,19,21.30
2013,09,10,10,20,21.40
2013,09,10,10,21,21.50
2013,09,10,10,22,21.60
2013,09,10,10,23,21.60
2013,09,10,10,24,21.50
2013,09,10,10,25,21.40
2013,09,10,10,26,21.40
2013,09,10,10,27,21.40
2013,09,10,10,28,21.40
2013,09,10,10,29,21.50
2013,09,10,10,30,21.60
2013,09,10,10,31,21.60
2013,09,10,10,32,21.50
2013,09,10,10,33,21.40
2013,09,10,10,34,21.50
2013,09,10,10,35,21.60
2013,09,10,10,36,21.60
2013,09,10,10,37,21.60
2013,09,10,10,38,21.60
2013,09,10,10,39,21.60
2013,09,10,10,40,21.50
2013,09,10,10,41,21.40
2013,09,10,10,42,21.40
2013,09,10,10,43,21.30
2013,09,10,10,44,21.30
2013,09,10,10,45,21.30
2013,09,10,10,46,21.30
2013,09,10,10,47,21.20
2013,09,10,10,48,21.10
2013,09,10,10,49,21.00
2013,09,10,10,50,20.90
2013,09,10,10,51,20.80
2013,09,10,10,52,20.80
2013,09,10,10,53,20.70
2013,09,10,10,54,20.60
2013,09,10,10,55,20.60
2013,09,10,10,56,20.50
2013,09,10,10,57,20.50
2013,09,10,10,58,20.50
2013,09,10,10,59,20.40
2013,09,10,11,00,20.50
2013,09,10,11,01,20.50
2013,09,10,11,02,20.50
2013,09,10,11,03,20.50
2013,09,10,11,04,20.50
2013,09,10,11,05,20.50
2013,09,10,11,06,20.50
2013,09,10,11,07,20.50
2013,09,10,11,08,20.40
2013,09,10,11,09,20.40
2013,09,10,11,10,20.30
2013,09,10,11,11,20.30
2013,09,10,11,12,20.30
2013,09,10,11,13,20.30
2013,09,10,11,14,20.30
2013,09,10,11,15,20.30
2013,09,10,11,16,20.40
2013,09,10,11,17,20.40
2013,09,10,11,18,20.50
2013,09,10,11,19,20.50
2013,09,10,11,20,20.60
2013,09,10,11,21,20.70
2013,09,10,11,22,20.80
2013,09,10,11,23,20.90
2013,09,10,11,24,21.00
2013,09,10,11,25,21.10
2013,09,10,11,26,21.20
2013,09,10,11,27,21.30
2013,09,10,11,28,21.50
2013,09,10,11,29,21.60
2013,09,10,11,30,21.60
2013,09,10,11,31,21.70
2013,09,10,11,32,21.70
2013,09,10,11,33,21.70
2013,09,10,11,34,21.70
2013,09,10,11,35,21.80
2013,09,10,11,36,21.90
2013,09,10,11,37,22.00
2013,09,10,11,38,22.00
2013,09,10,11,39,22.10
2013,09,10,11,40,22.10
2013,09,10,11,41,22.20
2013,09,10,11,42,22.20
2013,09,10,11,43,22.30
2013,09,10,11,44,22.30
2013,09,10,11,45,22.40
2013,09,10,11,46,22.40
2013,09,10,11,47,22.40
2013,09,10,11,48,22.30
2013,09,10,11,49,22.10
2013,09,10,11,50,22.00
2013,09,10,11,51,22.00
2013,09,10,11,52,22.00
2013,09,10,11,53,22.00
2013,09,10,11,54,22.00
2013,09,10,11,55,21.90
2013,09,10,11,56,22.00
2013,09,10,11,57,22.00
2013,09,10,11,58,22.00
2013,09,10,11,59,22.00
2013,09,10,12,00,22.00
2013,09,10,12,01,22.10
2013,09,10,12,02,22.10
2013,09,10,12,03,22.00
2013,09,10,12,04,22.00
2013,09,10,12,05,22.10
2013,09,10,12,06,22.10
2013,09,10,12,07,22.20
2013,09,10,12,08,22.20
2013,09,10,12,09,22.20
2013,09,10,12,10,22.20
2013,09,10,12,11,22.10
2013,09,10,12,12,22.00
2013,09,10,12,13,22.00
2013,09,10,12,14,22.00
2013,09,10,12,15,22.00
2013,09,10,12,16,22.00
2013,09,10,12,17,22.10
2013,09,10,12,18,22.10
2013,09,10,12,19,22.00
2013,09,10,12,20,22.00
2013,09,10,12,21,22.00
2013,09,10,12,22,22.10
2013,09,10,12,23,22.20
2013,09,10,12,24,22.30
2013,09,10,12,25,22.30
2013,09,10,12,26,22.30
2013,09,10,12,27,22.30
2013,09,10,12,28,22.40
2013,09,10,12,29,22.50
2013,09,10,12,30,22.60
2013,09,10,12,31,22.60
2013,09,10,12,32,22.70
2013,09,10,12,33,22.70
2013,09,10,12,34,22.70
2013,09,10,12,35,22.90
2013,09,10,12,36,23.00
2013,09,10,12,37,23.10
2013,09,10,12,38,23.10
2013,09,10,12,39,23.10
2013,09,10,12,40,23.10
2013,09,10,12,41,23.10
2013,09,10,12,42,23.10
2013,09,10,12,43,23.10
2013,09,10,12,44,23.20
2013,09,10,12,45,23.20
2013,09,10,12,46,23.30
2013,09,10,12,47,23.30
2013,09,10,12,48,23.20
2013,09,10,12,49,23.20
2013,09,10,12,50,23.20
2013,09,10,12,51,23.20
2013,09,10,12,52,23.20
2013,09,10,12,53,23.20
2013,09,10,12,54,23.20
2013,09,10,12,55,23.00
2013,09,10,12,56,22.90
2013,09,10,12,57,22.80
2013,09,10,12,58,22.80
2013,09,10,12,59,22.80
2013,09,10,13,00,22.80
2013,09,10,13,01,22.90
2013,09,10,13,02,22.90
2013,09,10,13,03,22.90
2013,09,10,13,04,22.90
2013,09,10,13,05,22.80
2013,09,10,13,06,22.70
2013,09,10,13,07,22.70
2013,09,10,13,08,22.60
2013,09,10,13,09,22.60
2013,09,10,13,10,22.60
2013,09,10,13,11,22.70
2013,09,10,13,12,22.80
2013,09,10,13,13,22.90
2013,09,10,13,14,22.90
2013,09,10,13,15,22.90
2013,09,10,13,16,22.90
2013,09,10,13,17,23.00
2013,09,10,13,18,23.20
2013,09,10,13,19,23.20
2013,09,10,13,20,23.30
2013,09,10,13,21,23.30
2013,09,10,13,22,23.20
2013,09,10,13,23,23.10
2013,09,10,13,24,22.90
2013,09,10,13,25,23.00
2013,09,10,13,26,23.10
2013,09,10,13,27,23.10
2013,09,10,13,28,23.10
2013,09,10,13,29,23.20
2013,09,10,13,30,23.20
2013,09,10,13,31,23.20
2013,09,10,13,32,23.30
2013,09,10,13,33,23.30
2013,09,10,13,34,23.20
2013,09,10,13,35,23.10
2013,09,10,13,36,23.10
2013,09,10,13,37,23.10
2013,09,10,13,38,23.20
2013,09,10,13,39,23.20
2013,09,10,13,40,23.30
2013,09,10,13,41,23.30
2013,09,10,13,42,23.30
2013,09,10,13,43,23.40
2013,09,10,13,44,23.40
2013,09,10,13,45,23.40
2013,09,10,13,46,23.40
2013,09,10,13,47,23.40
2013,09,10,13,48,23.30
2013,09,10,13,49,23.30
2013,09,10,13,50,23.30
2013,09,10,13,51,23.40
2013,09,10,13,52,23.60
2013,09,10,13,53,23.70
2013,09,10,13,54,23.80
2013,09,10,13,55,23.80
2013,09,10,13,56,23.90
2013,09,10,13,57,23.90
2013,09,10,13,58,24.00
2013,09,10,13,59,24.00
2013,09,10,14,00,23.90
2013,09,10,14,01,23.80
2013,09,10,14,02,23.70
2013,09,10,14,03,23.70
2013,09,10,14,04,23.70
2013,09,10,14,05,23.60
2013,09,10,14,06,23.60
2013,09,10,14,07,23.70
2013,09,10,14,08,23.70
2013,09,10,14,09,23.60
2013,09,10,14,10,23.60
2013,09,10,14,11,23.50
2013,09,10,14,12,23.40
2013,09,10,14,13,23.40
2013,09,10,14,14,23.40
2013,09,10,14,15,23.40
2013,09,10,14,16,23.40
2013,09,10,14,17,23.40
2013,09,10,14,18,23.30
2013,09,10,14,19,23.30
2013,09,10,14,20,23.30
2013,09,10,14,21,23.30
2013,09,10,14,22,23.30
2013,09,10,14,23,23.30
2013,09,10,14,24,23.30
2013,09,10,14,25,23.40
2013,09,10,14,26,23.50
2013,09,10,14,27,23.70
2013,09,10,14,28,23.70
2013,09,10,14,29,23.70
2013,09,10,14,30,23.70
2013,09,10,14,31,23.70
2013,09,10,14,32,23.70
2013,09,10,14,33,23.70
2013,09,10,14,34,23.70
2013,09,10,14,35,23.70
2013,09,10,14,36,23.70
2013,09,10,14,37,23.80
2013,09,10,14,38,23.80
2013,09,10,14,39,23.80
2013,09,10,14,40,23.80
2013,09,10,14,41,23.80
2013,09,10,14,42,23.70
2013,09,10,14,43,23.70
2013,09,10,14,44,23.70
2013,09,10,14,45,23.70
2013,09,10,14,46,23.70
2013,09,10,14,47,23.70
2013,09,10,14,48,23.70
2013,09,10,14,49,23.80
2013,09,10,14,50,23.80
2013,09,10,14,51,23.80
2013,09,10,14,52,23.90
2013,09,10,14,53,24.10
2013,09,10,14,54,24.10
2013,09,10,14,55,24.20
2013,09,10,14,56,24.20
2013,09,10,14,57,24.20
2013,09,10,14,58,24.20
2013,09,10,14,59,24.30
2013,09,10,15,00,24.30
2013,09,10,15,01,24.20
2013,09,10,15,02,24.20
2013,09,10,15,03,24.20
2013,09,10,15,04,24.20
2013,09,10,15,05,24.20
2013,09,10,15,06,24.20
2013,09,10,15,07,24.20
2013,09,10,15,08,24.10
2013,09,10,15,09,24.10
2013,09,10,15,10,23.90
2013,09,10,15,11,23.90
2013,09,10,15,12,23.90
2013,09,10,15,13,24.00
2013,09,10,15,14,24.10
2013,09,10,15,15,24.00
2013,09,10,15,16,23.80
2013,09,10,15,17,23.70
2013,09,10,15,18,23.70
2013,09,10,15,19,23.60
2013,09,10,15,20,23.60
2013,09,10,15,21,23.40
2013,09,10,15,22,23.30
2013,09,10,15,23,23.20
2013,09,10,15,24,23.20
2013,09,10,15,25,23.20
2013,09,10,15,26,23.30
2013,09,10,15,27,23.30
2013,09,10,15,28,23.30
2013,09,10,15,29,23.20
2013,09,10,15,30,23.10
2013,09,10,15,31,23.00
2013,09,10,15,32,22.90
2013,09,10,15,33,22.90
2013,09,10,15,34,22.90
2013,09,10,15,35,23.10
2013,09,10,15,36,23.20
2013,09,10,15,37,23.20
2013,09,10,15,38,23.20
2013,09,10,15,39,23.30
2013,09,10,15,40,23.30
2013,09,10,15,41,23.20
2013,09,10,15,42,23.10
2013,09,10,15,43,23.00
2013,09,10,15,44,22.90
2013,09,10,15,45,22.90
2013,09,10,15,46,22.90
2013,09,10,15,47,22.80
2013,09,10,15,48,22.70
2013,09,10,15,49,22.60
2013,09,10,15,50,22.50
2013,09,10,15,51,22.50
2013,09,10,15,52,22.40
2013,09,10,15,53,22.50
2013,09,10,15,54,22.50
2013,09,10,15,55,22.50
2013,09,10,15,56,22.60
2013,09,10,15,57,22.60
2013,09,10,15,58,22.80
2013,09,10,15,59,22.90
2013,09,10,16,00,23.10
2013,09,10,16,01,23.20
2013,09,10,16,02,23.20
2013,09,10,16,03,23.20
2013,09,10,16,04,23.20
2013,09,10,16,05,23.20
2013,09,10,16,06,23.20
2013,09,10,16,07,23.20
2013,09,10,16,08,23.20
2013,09,10,16,09,23.20
2013,09,10,16,10,23.20
2013,09,10,16,11,23.10
2013,09,10,16,12,23.10
2013,09,10,16,13,23.10
2013,09,10,16,14,23.00
2013,09,10,16,15,22.90
2013,09,10,16,16,22.90
2013,09,10,16,17,22.90
2013,09,10,16,18,23.00
2013,09,10,16,19,23.10
2013,09,10,16,20,23.20
2013,09,10,16,21,23.20
2013,09,10,16,22,23.30
2013,09,10,16,23,23.30
2013,09,10,16,24,23.30
2013,09,10,16,25,23.30
2013,09,10,16,26,23.30
2013,09,10,16,27,23.30
2013,09,10,16,28,23.30
2013,09,10,16,29,23.30
2013,09,10,16,30,23.20
2013,09,10,16,31,23.20
2013,09,10,16,32,23.20
2013,09,10,16,33,23.20
2013,09,10,16,34,23.10
2013,09,10,16,35,23.10
2013,09,10,16,36,23.10
2013,09,10,16,37,23.10
2013,09,10,16,38,23.10
2013,09,10,16,39,23.10
2013,09,10,16,40,23.20
2013,09,10,16,41,23.30
2013,09,10,16,42,23.30
2013,09,10,16,43,23.30
2013,09,10,16,44,23.30
2013,09,10,16,45,23.30
2013,09,10,16,46,23.40
2013,09,10,16,47,23.40
2013,09,10,16,48,23.40
2013,09,10,16,49,23.50
2013,09,10,16,50,23.60
2013,09,10,16,51,23.70
2013,09,10,16,52,23.70
2013,09,10,16,53,23.70
2013,09,10,16,54,23.60
2013,09,10,16,55,23.60
2013,09,10,16,56,23.60
2013,09,10,16,57,23.50
2013,09,10,16,58,23.40
2013,09,10,16,59,23.40
2013,09,10,17,00,23.40
2013,09,10,17,01,23.40
2013,09,10,17,02,23.40
2013,09,10,17,03,23.40
2013,09,10,17,04,23.50
2013,09,10,17,05,23.60
2013,09,10,17,06,23.50
2013,09,10,17,07,23.40
2013,09,10,17,08,23.40
2013,09,10,17,09,23.40
2013,09,10,17,10,23.40
2013,09,10,17,11,23.40
2013,09,10,17,12,23.30
2013,09,10,17,13,23.30
2013,09,10,17,14,23.30
2013,09,10,17,15,23.30
2013,09,10,17,16,23.30
2013,09,10,17,17,23.30
2013,09,10,17,18,23.30
2013,09,10,17,19,23.20
2013,09,10,17,20,23.20
2013,09,10,17,21,23.10
2013,09,10,17,22,23.00